Flag for U.S.A. Weather past 2 weeks in Tucson, Arizona, U.S.A.

Now
81 °F

Sunny.


Feels Like: 82 °F
Forecast: 80 / 98 °F
Wind: 9 mph from Southeast

Location: Davis-Monthan Air Force Base

Current Time: Jul 31, 2015 at 7:34:22 AM

Latest Report: Jul 31, 2015 at 6:58 AM


Visibility: 10 mi

Pressure: 29.95 "Hg (27.47 "Hg at 758m altitude)

Humidity: 56%

Dew point: 64 °F

Location of TucsonLocation

Historic Weather in Tucson — Graph

°F

Tucson temperature yesterday

Maximum temperature yesterday: 97 °F (at 3:58 PM)
Minimum temperature yesterday: 72 °F (at 4:58 AM)
Average temperature yesterday: 85 °F

Past Weeks' High & Low Weather Summary

 TemperatureHumidityPressure
High100 °F (Jul 26, 3:58 PM)88% (Jul 28, 7:58 PM)30.12 "Hg (Jul 28, 7:58 PM)
Low71 °F (Jul 28, 8:58 PM)11% (Jul 26, 12:58 PM)29.67 "Hg (Jul 21, 4:58 PM)
Average85 °F47%29.87 "Hg
* Reported Jul 16 5:58 AM — Jul 31 5:58 AM, Tucson, Weather by CustomWeather, © 2015

Note: Actual official high and low records may vary slightly from our data, if they occured in-between our weather recording intervals... More about our weather records

Advertising

Tucson weather history for previous 24 hours

 ConditionsComfort  
Time TempWeatherWind HumidityBarometerVisibility
5:58 AM
Fri, Jul 31
80 °FSunny.5 mph58%29.91 "Hg10 mi
4:58 AM80 °FClear.6 mph61%29.90 "Hg10 mi
3:58 AM81 °FPassing clouds.7 mph61%30.05 "Hg10 mi
2:58 AM82 °FPassing clouds.7 mph58%29.90 "Hg10 mi
1:58 AM82 °FPassing clouds.6 mph59%29.90 "Hg10 mi
12:58 AM83 °FClear.7 mph55%29.91 "Hg10 mi
11:58 PM
Thu, Jul 30
84 °FPassing clouds.7 mph55%29.93 "Hg10 mi
10:58 PM85 °FPassing clouds.10 mph52%29.93 "Hg10 mi
9:58 PM89 °FClear.No wind44%29.91 "Hg10 mi
8:58 PM89 °FClear.1 mph39%29.90 "Hg10 mi
7:58 PM90 °FPassing clouds.6 mph38%29.89 "Hg10 mi
6:58 PM95 °FSunny.2 mph25%29.86 "Hg10 mi
5:58 PM96 °FSunny.2 mph26%29.85 "Hg10 mi
4:58 PM96 °FSunny.7 mph27%29.85 "Hg10 mi
3:58 PM97 °FSunny.2 mph25%29.86 "Hg10 mi
2:58 PM96 °FSunny.1 mph28%29.89 "Hg10 mi
1:58 PM93 °FSunny.3 mph31%29.92 "Hg10 mi
12:58 PM92 °FSunny.3 mph34%29.94 "Hg10 mi
11:58 AM91 °FSunny.3 mph37%29.98 "Hg10 mi
10:58 AM89 °FSunny.6 mph39%29.99 "Hg10 mi
9:58 AM86 °FSunny.8 mph44%30.01 "Hg10 mi
8:58 AM83 °FSunny.15 mph53%30.01 "Hg10 mi
7:58 AM79 °FSunny.14 mph59%30.01 "Hg10 mi
Weather by CustomWeather, © 2015

See weather overviewHow to use our weather pages